Weather in Borovsk

Russia / Kaluga Oblast     55°12′27″N   36°29′00″E
temp.,
°C
wind,
m/s
gust,
m/s
humid.,
%
clouds,
%
prec.,
mm/h
press.,
hPa
HPBL,
m
6 may, thu
thu600:00+9s3128997 0.0 1007343
03:00+7s31195100 0.0 1007262
06:00+8s41492100 0.0 1005434
09:00+12s61473100 0.0 1004977
12:00+15s9165965 0.1 10031884
15:00+13ssw81562100 0.3 10021943
18:00+7wsw61290100 1.1 1005810
21:00+6ssw4109499 1.1 1007494
7 may, fri
fri700:00+6sw4119399 0.0 1009529
03:00+3sw311967 0.0 1010331
06:00+3sw411905 0.0 1011395
09:00+9sw59630 0.0 1013884
12:00+13sw61043100 0.0 10122556
15:00+13sw61048100 0.3 10122303
18:00+12ssw496398 0.6 10111267
21:00+9sse41174100 0.6 1012387
8 may, sat
sat800:00+9s41276100 0.3 1011734
03:00+8sse61582100 1.4 1008902
06:00+8sse51483100 0.4 1006890
09:00+7se3997100 5.9 1004564
12:00+9s41097100 0.9 1003722
15:00+12sw4783100 1.3 1002928
18:00+8sw61190100 2.3 1004972
21:00+4w61287100 2.4 1007988
9 may, sun
sun900:00+5w61177100 0.1 10091218
03:00+4w4108698 0.1 1012663
06:00+4w4976100 0.0 10141129
09:00+6wnw5766100 0.0 10171201
12:00+10nw5747100 0.0 10182067
15:00+12nw57375 0.0 10202366
18:00+11nnw47471 0.0 10221656
21:00+5nnw22690 0.0 102515
10 may, mon
mon1000:00+3nnw22676 0.0 102610
03:00+2nw116944 0.0 102810
06:00+4n116988 0.0 102912
09:00+10sse114994 0.0 1030377
12:00+15w013810 0.0 10291312
15:00+16nw11350 0.0 10281539
18:00+15s01454 0.0 10281336
21:00+8se22681 0.0 102919